DECAYED

OBJECT F, 43836 (Decayed)

Orbit data source: Space-Track

You're viewing an Uncataloged Satellite

Recently launched and/or uncataloged satellites may have evolving metadata. Metadata may include but not limited to: Owner, Maufacturer, Bus, Motor, and Mission.

OBJECT F, 43836 was a satellite in LEO that was launched on Fri, 07 Dec 2018 UTC via a CHANG ZHENG 2D launch vehicle from the Jiuquan Satellite Launch Center, China (JSC). Unknown objects in Earth's orbit typically refer to objects detected orbiting the Earth but have not yet been identified or cataloged. These objects could be anything from previously untracked satellites, spent rocket stages, debris from satellite collisions, or even natural meteoroids temporarily captured by Earth's gravity. This object's orbit decayed before it could be identified.

Not visible in the next 10 days
Identifier
43836, 2018-102F
Orbit
Decayed
Last TLE update
4 months ago
Origin
Flag of TBDBTWK/OFO (TBD)
Manufacturer
Jiutian
Mission
Decayed Commercial Communications
Bus & Motor
PIAOCHONG, Unknown motor
Mass
100 kg wet, 100 kg dry
Launch date (UTC)
2018-12-07 (6 years ago)
Launch vehicle
CHANG ZHENG 2D
Launch site
Jiuquan Satellite Launch Center, China (JSC)
Object type
Unknown
Shape & HBR
Box, 1 m
Radar Cross Section
1.500 m², Medium (>0.1 m² and < 1m²)

Expand to show TLE details & history

TLE from 4 months ago
0 OBJECT F
1 43836U 18102F   25021.33289307  .18295486  18183-2  60627-3 0  9991
2 43836  97.3870 115.3241 0009265 285.6082  74.4198 16.46737163339248
Epoch: 2025-01-21T07:59Z
Definitive object data (Epoch: 2025-01-21T07:59:21.961Z)
Latitude
-0.00003°
Longitude
-125.45803°
Altitude
149.583 km
Speed
7.817 km/s
True Right ascension
07h 41m 17s
True Declination
0° 00' 00"
Sunlit
Object was in full shadow at TLE epoch
Visualization observer readout
Visualization observer readout
Orbital elements
Apogee altitude
150.784 km
Perigee altitude
138.697 km
Semi-major axis
6,522.877 km
Eccentricity
0.0009265
Inclination
97.387°
RAAN
115.3241°
Arg. of periapsis
285.6082°
True anomaly
74.5221°
Mean anomaly
74.4198°
Eccentric anomaly
74.47095°
Mean motion
4.11988 °/min
BSTAR
0.00060627
Orbital period
87.38 mins
Loading maneuver chart data...
Loading SW <> Apogee altitude chart data...
Loading historical data...
Loading historical data...
Loading historical data...
Loading historical data...
Loading historical data...
Loading historical data...
Loading historical data...

OBJECT F Visibility forecast

Observer location: undefined°, undefined°

This satellite is decayed
Span
Click to sort rows by Start time (UTC) header in descending order
Start Az.
Max El. time (UTC)
Max El. Az.
Max El.
End time (UTC)
End Az.
|